"Timestamp","TZ","WindDir_Mean (deg)","WindSpd_Mean (km/h)","WindSpd_Min (km/h)","WindSpd_Max (km/h)","Temp_Mean (deg)","RH_Mean (%)","MSLP_Mean (hPa)","Rain_Acc (mm)","Rain_Intensity (mm/h)","Hail_Acc (hits/cm2)","Hail_Intensity (hits/cm2hr)","Solar_Mean (W/m2)"
2018/05/14 00:00:00.002,n,231,1.8,1.08,2.16,14.5,74.2,1020.22,0,0,0,0,0.027885
2018/05/14 00:01:00.000,n,274,1.44,0.72,2.52,14.5,74.3,1020.22,0,0,0,0,0.027008
2018/05/14 00:02:00.000,n,276,0.72,0.36,0.72,14.5,74.3,1020.22,0,0,0,0,0.027885
2018/05/14 00:03:00.000,n,236,1.44,1.08,1.8,14.5,74.4,1020.22,0,0,0,0,0.024376
2018/05/14 00:04:00.007,n,281,1.08,0.72,2.16,14.4,74.5,1020.22,0,0,0,0,0.023499
2018/05/14 00:05:00.005,n,243,1.8,1.08,2.16,14.4,75,1020.22,0,0,0,0,0.024376
2018/05/14 00:06:00.002,n,247,2.88,2.16,2.88,14.4,75,1020.22,0,0,0,0,0.032234
2018/05/14 00:07:00.000,n,287,2.88,1.8,4.32,14.4,74.6,1020.22,0,0,0,0,0.025253
2018/05/14 00:08:00.011,n,267,5.04,4.32,5.4,14.4,74.6,1020.12,0,0,0,0,0.022659
2018/05/14 00:09:00.010,n,266,7.56,6.48,8.28,14.4,74.2,1020.12,0,0,0,0,0.028725
2018/05/14 00:10:00.000,n,270,5.76,5.04,6.48,14.3,74.2,1020.12,0,0,0,0,0.020027
2018/05/14 00:11:00.000,n,267,5.76,5.04,6.84,14.3,74.3,1020.12,0,0,0,0,0.022659
2018/05/14 00:12:00.002,n,251,5.76,4.68,6.84,14.3,74.6,1020.12,0,0,0,0,0.020905
2018/05/14 00:13:00.000,n,265,3.24,2.52,4.32,14.3,74.6,1020.22,0,0,0,0,0.024376
2018/05/14 00:14:00.000,n,246,3.6,3.24,3.96,14.3,74.5,1020.22,0,0,0,0,0.021782
2018/05/14 00:15:00.009,n,238,4.68,4.32,5.04,14.2,74.5,1020.22,0,0,0,0,0.021782
2018/05/14 00:16:00.008,n,232,5.04,3.96,5.76,14.2,75,1020.12,0,0,0,0,0.020905
2018/05/14 00:17:00.004,n,272,5.4,5.04,6.12,14.2,74.8,1020.12,0,0,0,0,0.01915
2018/05/14 00:18:00.003,n,255,6.12,5.4,6.48,14.2,74.5,1020.12,0,0,0,0,0.023499
2018/05/14 00:19:00.000,n,272,6.12,5.4,6.48,14.2,74.4,1020.12,0,0,0,0,0.023499
2018/05/14 00:20:00.003,n,257,4.68,4.32,5.04,14.2,74.4,1020.12,0,0,0,0,0.020027
2018/05/14 00:21:00.000,n,285,1.8,0.72,2.16,14.2,74.9,1020.12,0,0,0,0,0.01915
2018/05/14 00:22:00.000,n,230,1.44,1.08,1.44,14.2,74.6,1020.12,0,0,0,0,0.01915
2018/05/14 00:23:00.006,n,19,2.16,1.44,2.88,14.2,74.9,1020.12,0,0,0,0,0.027046
2018/05/14 00:24:00.000,n,133,1.8,1.44,2.16,14.2,74.8,1020.12,0,0,0,0,0.030479
2018/05/14 00:25:00.012,n,225,0.72,0.36,1.08,14.2,74.6,1020.12,0,0,0,0,0.033112
2018/05/14 00:26:00.010,n,262,1.8,0.72,2.16,14.1,74.6,1020.12,0,0,0,0,0.035744
2018/05/14 00:27:00.006,n,225,1.8,1.8,2.16,14.1,74.7,1020.12,0,0,0,0,0.032234
2018/05/14 00:28:00.000,n,243,1.08,1.08,1.44,14.1,74.6,1020.12,0,0,0,0,0.033989
2018/05/14 00:29:00.000,n,270,5.04,2.52,7.2,14.1,74.6,1020.12,0,0,0,0,0.029602
2018/05/14 00:30:00.000,n,183,2.52,2.16,2.52,14.1,74.4,1020.12,0,0,0,0,0.029602
2018/05/14 00:31:00.000,n,230,2.52,2.52,2.88,14.1,74.2,1020.12,0,0,0,0,0.031395
2018/05/14 00:32:00.000,n,246,1.44,1.08,1.8,14.1,74,1020.02,0,0,0,0,0.029602
2018/05/14 00:33:00.007,n,300,0.72,0.72,0.72,14.1,73.9,1020.02,0,0,0,0,0.029602
2018/05/14 00:34:00.005,n,182,1.08,0.72,1.08,14.1,73.9,1020.02,0,0,0,0,0.028763
2018/05/14 00:35:00.002,n,274,4.32,3.96,5.04,14.1,73.9,1020.02,0,0,0,0,0.033112
2018/05/14 00:36:00.015,n,258,2.88,2.52,3.24,14.1,73.6,1020.02,0,0,0,0,0.030479
2018/05/14 00:37:00.000,n,231,2.52,2.16,2.88,14.1,73.6,1019.92,0,0,0,0,0.026131
2018/05/14 00:38:00.000,n,350,0.72,0.36,1.08,14.1,73.6,1019.92,0,0,0,0,0.026131
2018/05/14 00:39:00.000,n,132,1.8,1.8,1.8,14.2,73.6,1019.92,0,0,0,0,0.028763
2018/05/14 00:40:00.004,n,120,0.72,0.36,1.08,14.2,73.4,1019.92,0,0,0,0,0.027885
2018/05/14 00:41:00.002,n,211,2.52,2.16,3.24,14.2,73.4,1019.92,0,0,0,0,0.026131
2018/05/14 00:42:00.000,n,207,1.8,1.08,2.52,14.2,73.2,1019.92,0,0,0,0,0.026131
2018/05/14 00:43:00.011,n,286,2.88,2.16,3.96,14.2,73.1,1019.92,0,0,0,0,0.024414
2018/05/14 00:44:00.008,n,221,1.44,1.08,1.8,14.2,73.4,1019.92,0,0,0,0,0.027885
2018/05/14 00:45:00.005,n,128,1.8,1.08,2.52,14.2,73.1,1019.92,0,0,0,0,0.028763
2018/05/14 00:46:00.000,n,152,1.08,0.72,2.16,14.2,73.1,1019.92,0,0,0,0,0.025253
2018/05/14 00:47:00.000,n,122,1.08,1.08,1.08,14.2,73,1019.92,0,0,0,0,0.024414
2018/05/14 00:48:00.000,n,261,1.8,0.72,2.52,14.2,72.8,1019.92,0,0,0,0,0.025253
2018/05/14 00:49:00.000,n,191,2.16,1.8,2.16,14.1,73,1019.92,0,0,0,0,0.026131
2018/05/14 00:50:00.008,n,125,1.08,1.08,1.44,14.1,73,1019.92,0,0,0,0,0.024414
2018/05/14 00:51:00.005,n,132,1.8,1.44,1.8,14.1,73.2,1019.92,0,0,0,0,0.023537
2018/05/14 00:52:00.002,n,127,1.44,0.72,2.16,14.1,73.5,1019.92,0,0,0,0,0.022659
2018/05/14 00:53:00.000,n,150,2.52,2.52,2.52,14.1,74,1019.92,0,0,0,0,0.024414
2018/05/14 00:54:00.013,n,128,1.44,1.08,1.44,14.1,74.3,1019.92,0,0,0,0,0.022659
2018/05/14 00:55:00.000,n,164,1.44,1.08,1.44,14.1,74.5,1019.92,0,0,0,0,0.027008
2018/05/14 00:56:00.000,n,150,2.52,2.16,2.88,14.1,75.1,1019.92,0,0,0,0,0.033073
2018/05/14 00:57:00.004,n,162,5.04,4.68,5.04,14.1,75.3,1019.92,0,0,0,0,0.031357
2018/05/14 00:58:00.003,n,160,5.04,5.04,5.4,14.1,75.6,1019.92,0,0,0,0,0.033989
2018/05/14 00:59:00.000,n,190,2.52,2.16,2.52,14,75.9,1019.92,0,0,0,0,0.033073
2018/05/14 01:00:00.000,n,175,3.96,3.6,4.32,14,76.2,1019.92,0,0,0,0,0.02964
2018/05/14 01:01:00.012,n,154,3.24,2.88,3.6,14,76.5,1019.92,0,0,0,0,0.031357
2018/05/14 01:02:00.009,n,137,4.32,3.96,4.68,14,76.8,1019.92,0,0,0,0,0.033073
2018/05/14 01:03:00.007,n,139,2.88,1.08,3.96,13.9,76.9,1020.02,0,0,0,0,0.033989
2018/05/14 01:04:00.000,n,140,4.32,3.6,4.68,13.9,77,1019.92,0,0,0,0,0.030479
2018/05/14 01:05:00.000,n,164,7.2,6.84,7.92,13.8,76.8,1019.92,0,0,0,0,0.035706
2018/05/14 01:06:00.000,n,168,6.12,5.76,6.84,13.8,76.8,1019.92,0,0,0,0,0.033073
2018/05/14 01:07:00.000,n,153,4.68,3.6,5.04,13.7,77,1020.02,0,0,0,0,0.028725
2018/05/14 01:08:00.008,n,162,7.92,7.2,9,13.7,77.1,1020.02,0,0,0,0,0.033073
2018/05/14 01:09:00.005,n,167,8.28,7.92,8.64,13.7,77.2,1020.02,0,0,0,0,0.032234
2018/05/14 01:10:00.003,n,158,4.32,3.6,5.04,13.7,77.2,1020.02,0,0,0,0,0.034828
2018/05/14 01:11:00.000,n,159,4.32,3.96,5.04,13.7,77.3,1020.02,0,0,0,0,0.030479
2018/05/14 01:12:00.014,n,152,4.68,4.32,5.04,13.6,77.3,1020.02,0,0,0,0,0.026131
2018/05/14 01:13:00.000,n,126,1.8,1.08,2.16,13.6,77.4,1020.02,0,0,0,0,0.032234
2018/05/14 01:14:00.000,n,112,1.8,0.72,2.52,13.6,77.4,1020.02,0,0,0,0,0.030479
2018/05/14 01:15:00.000,n,221,1.44,1.08,1.44,13.6,77.3,1020.02,0,0,0,0,0.027008
2018/05/14 01:16:00.004,n,130,2.52,1.8,2.52,13.6,77.6,1020.02,0,0,0,0,0.026131
2018/05/14 01:17:00.002,n,189,2.88,2.88,3.6,13.6,77.5,1020.02,0,0,0,0,0.026131
2018/05/14 01:18:00.000,n,258,0.36,0.36,0.36,13.6,77.3,1020.02,0,0,0,0,0.026131
2018/05/14 01:19:00.011,n,158,2.52,2.16,2.52,13.6,77.3,1020.02,0,0,0,0,0.027885
2018/05/14 01:20:00.008,n,145,1.08,0.72,1.44,13.6,77.3,1020.02,0,0,0,0,0.028725
2018/05/14 01:21:00.005,n,246,1.08,0.36,1.8,13.6,77.4,1020.02,0,0,0,0,0.02964
2018/05/14 01:22:00.000,n,235,0.36,0.36,0.72,13.6,77.6,1020.02,0,0,0,0,0.033073
2018/05/14 01:23:00.000,n,261,1.44,0.72,2.16,13.6,77.3,1020.02,0,0,0,0,0.027885
2018/05/14 01:24:00.000,n,105,1.44,0.36,1.8,13.6,77.3,1020.02,0,0,0,0,0.027008
2018/05/14 01:25:00.000,n,183,3.6,3.24,4.32,13.6,77.1,1020.02,0,0,0,0,0.030479
2018/05/14 01:26:00.000,n,201,1.44,1.08,1.44,13.6,77.1,1020.02,0,0,0,0,0.028725
2018/05/14 01:27:00.006,n,60,0.72,0,1.08,13.6,77.3,1020.02,0,0,0,0,0.026131
2018/05/14 01:28:00.005,n,89,1.08,0.36,1.44,13.6,77.2,1020.02,0,0,0,0,0.027885
2018/05/14 01:29:00.002,n,190,1.08,0.36,1.8,13.6,77,1019.92,0,0,0,0,0.026131
2018/05/14 01:30:00.015,n,248,2.16,1.44,3.24,13.6,76.9,1019.92,0,0,0,0,0.025291
2018/05/14 01:31:00.000,n,92,0.72,0.36,1.08,13.6,77,1019.92,0,0,0,0,0.027008
2018/05/14 01:32:00.000,n,47,1.8,1.44,1.8,13.6,77,1019.92,0,0,0,0,0.024376
2018/05/14 01:33:00.000,n,256,0.36,0,0.72,13.6,77,1019.92,0,0,0,0,0.024376
2018/05/14 01:34:00.005,n,338,2.52,1.8,2.52,13.6,77.3,1019.92,0,0,0,0,0.025291
2018/05/14 01:35:00.003,n,273,2.88,2.16,3.6,13.6,77.3,1019.92,0,0,0,0,0.030479
2018/05/14 01:36:00.000,n,20,1.8,1.8,2.16,13.6,77.4,1019.92,0,0,0,0,0.022659
2018/05/14 01:37:00.000,n,25,1.08,0.36,2.16,13.7,77.2,1019.82,0,0,0,0,0.030518
2018/05/14 01:38:00.006,n,242,1.08,0,1.44,13.7,77.1,1019.82,0,0,0,0,0.028763
2018/05/14 01:39:00.004,n,235,2.52,2.52,2.88,13.6,77.1,1019.82,0,0,0,0,0.031357
2018/05/14 01:40:00.001,n,123,0.36,0,0.36,13.6,77.1,1019.82,0,0,0,0,0.030518
2018/05/14 01:41:00.000,n,202,1.08,0.72,1.08,13.6,77.1,1019.82,0,0,0,0,0.032234
2018/05/14 01:42:00.000,n,231,2.88,2.88,3.24,13.6,77.1,1019.82,0,0,0,0,0.033951
2018/05/14 01:43:00.000,n,151,1.08,0.72,1.44,13.6,77.2,1019.82,0,0,0,0,0.033112
2018/05/14 01:44:00.007,n,267,1.44,1.08,1.8,13.6,77.6,1019.82,0,0,0,0,0.030518
2018/05/14 01:45:00.004,n,258,2.88,2.16,3.24,13.6,77.6,1019.82,0,0,0,0,0.036583
2018/05/14 01:46:00.001,n,240,2.16,1.8,2.16,13.6,77.5,1019.82,0,0,0,0,0.032234
2018/05/14 01:47:00.000,n,239,2.16,1.8,2.52,13.6,77.5,1019.82,0,0,0,0,0.035744
2018/05/14 01:48:00.012,n,303,1.8,1.44,2.16,13.6,77.5,1019.82,0,0,0,0,0.033112
2018/05/14 01:49:00.000,n,265,3.24,2.88,3.6,13.6,77.5,1019.82,0,0,0,0,0.029602
2018/05/14 01:50:00.000,n,228,1.08,0.72,2.16,13.6,77.5,1019.82,0,0,0,0,0.031357
2018/05/14 01:51:00.000,n,245,2.52,1.44,3.6,13.6,77.9,1019.82,0,0,0,0,0.029602
2018/05/14 01:52:00.002,n,250,1.44,1.08,1.8,13.6,77.9,1019.82,0,0,0,0,0.030518
2018/05/14 01:53:00.000,n,247,1.8,1.08,2.52,13.6,77.6,1019.82,0,0,0,0,0.034866
2018/05/14 01:54:00.000,n,219,1.44,1.44,1.8,13.6,77.5,1019.82,0,0,0,0,0.027885
2018/05/14 01:55:00.009,n,250,1.44,1.08,1.8,13.6,77.4,1019.72,0,0,0,0,0.032234
2018/05/14 01:56:00.006,n,128,1.08,0.36,1.8,13.6,77.5,1019.72,0,0,0,0,0.028763
2018/05/14 01:57:00.004,n,48,0.72,0.36,1.08,13.6,77.5,1019.72,0,0,0,0,0.027885
2018/05/14 01:58:00.001,n,117,1.44,1.08,1.44,13.6,77.5,1019.72,0,0,0,0,0.028763
2018/05/14 01:59:00.000,n,152,2.88,2.52,3.24,13.5,77.6,1019.72,0,0,0,0,0.027885
2018/05/14 02:00:00.000,n,141,4.32,3.6,4.68,13.5,78,1019.72,0,0,0,0,0.031357
2018/05/14 02:01:00.000,n,153,6.84,5.76,7.92,13.5,78.6,1019.72,0,0,0,0,0.029602
2018/05/14 02:02:00.005,n,162,6.48,5.76,7.56,13.5,79,1019.72,0,0,0,0,0.036583
2018/05/14 02:03:00.002,n,164,5.76,5.4,7.2,13.5,79.4,1019.72,0,0,0,0,0.033112
2018/05/14 02:04:00.000,n,166,5.4,4.68,6.12,13.4,79.6,1019.72,0,0,0,0,0.033951
2018/05/14 02:05:00.012,n,149,9,7.92,9.72,13.3,79.7,1019.72,0,0,0,0,0.029602
2018/05/14 02:06:00.009,n,165,6.48,3.96,8.28,13.3,79.8,1019.72,0,0,0,0,0.029602
2018/05/14 02:07:00.000,n,160,8.64,7.56,9.72,13.2,80,1019.72,0,0,0,0,0.025253
2018/05/14 02:08:00.000,n,153,3.6,1.8,5.76,13.2,80,1019.72,0,0,0,0,0.027885
2018/05/14 02:09:00.002,n,158,5.4,4.68,6.12,13.2,80,1019.72,0,0,0,0,0.026131
2018/05/14 02:10:00.000,n,127,5.4,5.04,6.12,13.1,80,1019.72,0,0,0,0,0.028763
2018/05/14 02:11:00.000,n,157,6.12,5.4,6.84,13.1,79.8,1019.72,0,0,0,0,0.025253
2018/05/14 02:12:00.009,n,148,3.24,1.08,5.04,13.1,79.8,1019.72,0,0,0,0,0.027008
2018/05/14 02:13:00.006,n,151,6.12,5.04,7.2,13,79.8,1019.72,0,0,0,0,0.024414
2018/05/14 02:14:00.003,n,189,3.24,2.52,3.6,13,79.8,1019.72,0,0,0,0,0.030518
2018/05/14 02:15:00.001,n,153,7.2,7.2,7.56,13,79.8,1019.72,0,0,0,0,0.027008
2018/05/14 02:16:00.000,n,165,4.32,1.44,6.84,13,79.7,1019.82,0,0,0,0,0.024414
2018/05/14 02:17:00.000,n,165,9,7.56,10.440002,13,79.6,1019.82,0,0,0,0,0.025253
2018/05/14 02:18:00.000,n,165,4.32,2.52,5.4,13,79.5,1019.82,0,0,0,0,0.023537
2018/05/14 02:19:00.004,n,195,8.64,7.56,9.72,13,79.4,1019.82,0,0,0,0,0.024414
2018/05/14 02:20:00.001,n,176,9.72,8.64,10.440002,13,79,1019.82,0,0,0,0,0.026131
2018/05/14 02:21:00.000,n,192,8.28,6.84,10.08,13,78.9,1019.82,0,0,0,0,0.033951
2018/05/14 02:22:00.010,n,161,5.04,0.72,7.56,13,78.7,1019.82,0,0,0,0,0.026131
2018/05/14 02:23:00.007,n,184,4.68,4.32,5.4,13,78.6,1019.82,0,0,0,0,0.027885
2018/05/14 02:24:00.004,n,177,11.16,10.8,11.52,13,78.3,1019.82,0,0,0,0,0.027008
2018/05/14 02:25:00.001,n,183,3.6,1.44,5.4,13.1,78.1,1019.82,0,0,0,0,0.025253
2018/05/14 02:26:00.000,n,150,5.4,2.52,7.56,13.1,78.1,1019.92,0,0,0,0,0.025253
2018/05/14 02:27:00.000,n,185,7.92,5.76,8.64,13.1,78.1,1019.92,0,0,0,0,0.023537
2018/05/14 02:28:00.000,n,157,3.96,2.16,5.04,13.1,78,1019.92,0,0,0,0,0.022659
2018/05/14 02:29:00.006,n,170,8.28,6.84,10.8,13.1,78,1019.92,0,0,0,0,0.021782
2018/05/14 02:30:00.003,n,158,4.32,1.8,5.4,13.1,78,1019.92,0,0,0,0,0.024414
2018/05/14 02:31:00.000,n,159,5.04,2.88,6.84,13.1,77.9,1019.82,0,0,0,0,0.032234
2018/05/14 02:32:00.012,n,155,2.16,1.8,2.88,13.1,77.9,1019.82,0,0,0,0,0.033989
2018/05/14 02:33:00.009,n,185,4.68,4.32,6.48,13.1,77.8,1019.82,0,0,0,0,0.027847
2018/05/14 02:34:00.000,n,189,8.28,7.2,10.08,13.1,77.7,1019.82,0,0,0,0,0.027847
2018/05/14 02:35:00.002,n,164,9,7.92,10.08,13.1,77.7,1019.82,0,0,0,0,0.026131
2018/05/14 02:36:00.000,n,167,5.4,4.32,6.12,13.2,77.7,1019.82,0,0,0,0,0.027008
2018/05/14 02:37:00.000,n,197,3.96,3.6,4.32,13.2,77.6,1019.82,0,0,0,0,0.028763
2018/05/14 02:38:00.000,n,176,7.2,6.84,7.92,13.2,77.3,1019.82,0,0,0,0,0.02964
2018/05/14 02:39:00.007,n,178,10.8,9,12.24,13.2,77.2,1019.82,0,0,0,0,0.02964
2018/05/14 02:40:00.004,n,223,2.16,1.8,2.52,13.3,77.1,1019.82,0,0,0,0,0.028763
2018/05/14 02:41:00.001,n,234,1.44,1.08,1.8,13.3,77,1019.82,0,0,0,0,0.028763
2018/05/14 02:42:00.014,n,142,4.32,3.6,5.04,13.3,77,1019.82,0,0,0,0,0.028763
2018/05/14 02:43:00.000,n,164,7.2,6.48,7.56,13.3,76.8,1019.82,0,0,0,0,0.027847
2018/05/14 02:44:00.000,n,204,3.96,3.6,4.32,13.3,76.7,1019.82,0,0,0,0,0.027847
2018/05/14 02:45:00.005,n,109,4.68,2.88,5.76,13.3,76.6,1019.82,0,0,0,0,0.027847
2018/05/14 02:46:00.002,n,199,3.6,2.88,3.96,13.3,76.6,1019.82,0,0,0,0,0.026131
2018/05/14 02:47:00.000,n,66,1.44,0.72,2.88,13.3,76.5,1019.82,0,0,0,0,0.024414
2018/05/14 02:48:00.000,n,161,2.16,1.44,2.52,13.3,76.4,1019.82,0,0,0,0,0.025253
2018/05/14 02:49:00.009,n,352,2.52,1.8,3.6,13.3,76.8,1019.72,0,0,0,0,0.027847
2018/05/14 02:50:00.008,n,220,1.8,1.44,2.16,13.3,76.7,1019.72,0,0,0,0,0.033112
2018/05/14 02:51:00.005,n,228,2.88,2.16,3.6,13.3,76.5,1019.72,0,0,0,0,0.026131
2018/05/14 02:52:00.000,n,206,0.72,0.36,1.44,13.3,76.5,1019.72,0,0,0,0,0.024414
2018/05/14 02:53:00.000,n,297,1.44,0.72,2.16,13.3,76.5,1019.72,0,0,0,0,0.027008
2018/05/14 02:54:00.000,n,76,2.16,1.44,2.52,13.3,76.7,1019.72,0,0,0,0,0.024414
2018/05/14 02:55:00.000,n,181,1.8,1.44,2.16,13.3,76.5,1019.72,0,0,0,0,0.023499
2018/05/14 02:56:00.000,n,165,2.16,1.44,2.88,13.3,76.4,1019.72,0,0,0,0,0.024414
2018/05/14 02:57:00.007,n,152,3.96,3.96,4.32,13.2,76.5,1019.82,0,0,0,0,0.025253
2018/05/14 02:58:00.004,n,172,6.84,6.84,6.84,13.2,76.5,1019.72,0,0,0,0,0.027847
2018/05/14 02:59:00.001,n,193,4.68,4.32,5.04,13.2,76.7,1019.72,0,0,0,0,0.025253
2018/05/14 03:00:00.015,n,287,4.68,3.6,5.4,13.2,76.7,1019.72,0,0,0,0,0.026131
2018/05/14 03:01:00.000,n,218,2.88,2.52,2.88,13.1,76.8,1019.72,0,0,0,0,0.023499
2018/05/14 03:02:00.000,n,166,2.52,1.8,2.88,13.1,76.9,1019.72,0,0,0,0,0.027008
2018/05/14 03:03:00.000,n,237,1.8,1.08,2.16,13.1,76.8,1019.72,0,0,0,0,0.027008
2018/05/14 03:04:00.005,n,203,0.72,0.72,0.72,13.1,76.9,1019.72,0,0,0,0,0.027008
2018/05/14 03:05:00.003,n,252,3.24,2.52,3.6,13.1,77.1,1019.82,0,0,0,0,0.028763
2018/05/14 03:06:00.000,n,80,0.36,0.36,0.72,13.1,77.1,1019.82,0,0,0,0,0.024414
2018/05/14 03:07:00.012,n,234,2.16,1.44,2.52,13.1,77.5,1019.82,0,0,0,0,0.026131
2018/05/14 03:08:00.009,n,103,2.52,1.8,3.24,13.1,77.5,1019.82,0,0,0,0,0.023499
2018/05/14 03:09:00.007,n,281,3.6,2.88,4.32,13.1,77.2,1019.82,0,0,0,0,0.026131
2018/05/14 03:10:00.000,n,135,1.08,0.72,1.8,13.1,77.1,1019.72,0,0,0,0,0.021782
2018/05/14 03:11:00.001,n,221,1.8,0.36,3.6,13,77,1019.82,0,0,0,0,0.026131
2018/05/14 03:12:00.000,n,237,2.52,2.52,2.88,13,77.6,1019.82,0,0,0,0,0.022659
2018/05/14 03:13:00.000,n,61,0.72,0.36,1.08,13,77.4,1019.82,0,0,0,0,0.023499
2018/05/14 03:14:00.000,n,230,0.72,0.36,1.08,13,77.4,1019.82,0,0,0,0,0.023499
2018/05/14 03:15:00.006,n,88,2.16,0.36,2.52,13,77.4,1019.82,0,0,0,0,0.022659
2018/05/14 03:16:00.004,n,275,1.8,0.72,2.88,13,77.4,1019.82,0,0,0,0,0.025253
2018/05/14 03:17:00.001,n,177,2.88,2.16,3.6,13,77.5,1019.72,0,0,0,0,0.023499
2018/05/14 03:18:00.014,n,126,1.44,0.72,1.8,13,77.4,1019.72,0,0,0,0,0.024414
2018/05/14 03:19:00.000,n,169,1.8,0.72,3.24,13,77.4,1019.72,0,0,0,0,0.021782
2018/05/14 03:20:00.000,n,126,1.08,0.72,1.44,13,77.5,1019.72,0,0,0,0,0.026131
2018/05/14 03:21:00.000,n,249,1.44,1.08,1.8,13,77.6,1019.72,0,0,0,0,0.024414
2018/05/14 03:22:00.002,n,131,0.36,0,0.72,13,77.7,1019.72,0,0,0,0,0.020027
2018/05/14 03:23:00.000,n,33,2.16,1.08,2.52,13,77.9,1019.72,0,0,0,0,0.021782
2018/05/14 03:24:00.000,n,236,2.88,2.52,3.6,13,77.8,1019.72,0,0,0,0,0.017433
2018/05/14 03:25:00.010,n,162,3.96,3.24,3.96,13,78,1019.72,0,0,0,0,0.021782
2018/05/14 03:26:00.006,n,162,5.4,4.68,6.84,13,78,1019.72,0,0,0,0,0.020905
2018/05/14 03:27:00.003,n,161,5.4,4.68,6.84,12.9,78,1019.72,0,0,0,0,0.023499
2018/05/14 03:28:00.001,n,186,5.04,4.68,5.76,12.9,78.4,1019.72,0,0,0,0,0.022659
2018/05/14 03:29:00.000,n,258,2.52,2.52,3.24,12.8,78.6,1019.72,0,0,0,0,0.022659
2018/05/14 03:30:00.000,n,175,1.44,1.08,2.16,12.8,78.9,1019.72,0,0,0,0,0.021782
2018/05/14 03:31:00.000,n,350,2.52,1.8,3.6,12.8,79.1,1019.72,0,0,0,0,0.020027
2018/05/14 03:32:00.006,n,281,1.44,0.36,2.52,12.8,78.9,1019.72,0,0,0,0,0.021782
2018/05/14 03:33:00.005,n,203,1.08,0.36,1.08,12.8,78.9,1019.72,0,0,0,0,0.022659
2018/05/14 03:34:00.002,n,179,1.44,1.08,2.16,12.8,79.1,1019.72,0,0,0,0,0.01915
2018/05/14 03:35:00.000,n,168,2.16,1.08,2.88,12.8,79,1019.72,0,0,0,0,0.027885
2018/05/14 03:36:00.011,n,213,1.08,0.36,1.8,12.8,79,1019.72,0,0,0,0,0.030518
2018/05/14 03:37:00.000,n,4,1.8,1.44,2.52,12.8,79.1,1019.72,0,0,0,0,0.029602
2018/05/14 03:38:00.000,n,171,1.08,0.72,1.44,12.8,79.3,1019.72,0,0,0,0,0.033112
2018/05/14 03:39:00.003,n,73,1.8,0.72,2.16,12.8,79.3,1019.72,0,0,0,0,0.027008
2018/05/14 03:40:00.001,n,90,1.8,1.44,1.8,12.8,79.2,1019.72,0,0,0,0,0.027008
2018/05/14 03:41:00.000,n,94,2.52,2.16,2.88,12.8,79.3,1019.72,0,0,0,0,0.027008
2018/05/14 03:42:00.000,n,180,1.44,0.72,3.24,12.8,79.3,1019.72,0,0,0,0,0.027885
2018/05/14 03:43:00.008,n,153,2.16,1.8,2.52,12.8,79.4,1019.72,0,0,0,0,0.027008
2018/05/14 03:44:00.005,n,12,2.88,2.52,3.24,12.7,79.5,1019.72,0,0,0,0,0.034866
2018/05/14 03:45:00.002,n,326,2.16,1.8,2.52,12.7,79.7,1019.72,0,0,0,0,0.031395
2018/05/14 03:46:00.000,n,236,2.52,1.8,3.24,12.8,79.7,1019.72,0,0,0,0,0.028763
2018/05/14 03:47:00.000,n,249,1.44,1.08,1.8,12.8,79.5,1019.72,0,0,0,0,0.027008
2018/05/14 03:48:00.000,n,210,0.36,0,0.72,12.8,79.5,1019.72,0,0,0,0,0.026169
2018/05/14 03:49:00.006,n,251,2.16,2.16,2.52,12.7,79.4,1019.72,0,0,0,0,0.024414
2018/05/14 03:50:00.004,n,230,2.16,1.44,3.24,12.7,79.5,1019.72,0,0,0,0,0.023537
2018/05/14 03:51:00.000,n,205,1.44,0.36,1.8,12.7,79.5,1019.72,0,0,0,0,0.023537
2018/05/14 03:52:00.000,n,142,2.88,2.52,3.24,12.7,79.7,1019.72,0,0,0,0,0.027008
2018/05/14 03:53:00.012,n,153,4.32,4.32,4.68,12.7,79.9,1019.72,0,0,0,0,0.024414
2018/05/14 03:54:00.009,n,137,2.16,2.16,2.88,12.6,80,1019.72,0,0,0,0,0.023537
2018/05/14 03:55:00.000,n,170,2.16,1.8,2.16,12.6,80,1019.72,0,0,0,0,0.02182
2018/05/14 03:56:00.003,n,190,0.72,0.72,1.08,12.6,80.1,1019.72,0,0,0,0,0.027885
2018/05/14 03:57:00.000,n,346,1.44,1.08,1.8,12.6,80.3,1019.72,0,0,0,0,0.023537
2018/05/14 03:58:00.000,n,306,0.72,0,1.08,12.6,80.3,1019.72,0,0,0,0,0.02182
2018/05/14 03:59:00.000,n,98,0.72,0.36,0.72,12.6,80.4,1019.72,0,0,0,0,0.027008
2018/05/14 04:00:00.008,n,186,1.08,0.72,1.08,12.5,80.3,1019.72,0,0,0,0,0.027008
2018/05/14 04:01:00.007,n,137,1.8,1.44,2.16,12.5,80.3,1019.72,0,0,0,0,0.020905
2018/05/14 04:02:00.004,n,124,1.08,0.72,1.44,12.5,80.4,1019.72,0,0,0,0,0.026169
2018/05/14 04:03:00.001,n,141,2.16,2.16,2.16,12.5,80.5,1019.72,0,0,0,0,0.02182
2018/05/14 04:04:00.000,n,145,4.32,3.96,4.68,12.5,80.7,1019.72,0,0,0,0,0.023537
2018/05/14 04:05:00.000,n,139,3.6,3.24,3.96,12.5,80.8,1019.72,0,0,0,0,0.026169
2018/05/14 04:06:00.000,n,153,5.04,4.68,5.4,12.5,80.9,1019.82,0,0,0,0,0.033989
2018/05/14 04:07:00.002,n,148,4.68,4.68,5.04,12.4,81.1,1019.72,0,0,0,0,0.030518
2018/05/14 04:08:00.000,n,159,3.6,2.52,4.68,12.4,81.2,1019.72,0,0,0,0,0.032272
2018/05/14 04:09:00.000,n,134,3.96,3.6,4.68,12.4,81.2,1019.72,0,0,0,0,0.031357
2018/05/14 04:10:00.010,n,151,3.96,2.88,5.4,12.4,81.4,1019.72,0,0,0,0,0.030518
2018/05/14 04:11:00.007,n,163,3.24,3.24,3.96,12.4,81.4,1019.72,0,0,0,0,0.032272
2018/05/14 04:12:00.004,n,157,2.88,2.88,3.24,12.4,81.5,1019.72,0,0,0,0,0.030518
2018/05/14 04:13:00.002,n,154,4.32,3.6,5.04,12.4,81.6,1019.72,0,0,0,0,0.027885
2018/05/14 04:14:00.000,n,163,3.24,3.24,3.6,12.3,81.5,1019.72,0,0,0,0,0.028763
2018/05/14 04:15:00.000,n,155,5.04,4.32,5.76,12.3,81.6,1019.72,0,0,0,0,0.032272
2018/05/14 04:16:00.000,n,146,5.76,5.04,6.12,12.3,81.6,1019.82,0,0,0,0,0.027885
2018/05/14 04:17:00.006,n,143,4.68,3.6,5.76,12.3,81.7,1019.82,0,0,0,0,0.026169
2018/05/14 04:18:00.004,n,136,3.6,2.88,4.32,12.3,81.8,1019.82,0,0,0,0,0.02964
2018/05/14 04:19:00.001,n,166,4.68,4.32,5.4,12.3,81.8,1019.82,0,0,0,0,0.025291
2018/05/14 04:20:00.000,n,149,6.84,6.48,7.2,12.2,81.9,1019.72,0,0,0,0,0.025291
2018/05/14 04:21:00.011,n,168,3.96,3.6,5.04,12.2,82,1019.72,0,0,0,0,0.026169
2018/05/14 04:22:00.000,n,166,2.52,2.16,2.88,12.2,82.1,1019.72,0,0,0,0,0.027008
2018/05/14 04:23:00.000,n,181,0.72,0.36,0.72,12.2,82,1019.82,0,0,0,0,0.027885
2018/05/14 04:24:00.002,n,150,4.32,3.96,4.68,12.2,82,1019.82,0,0,0,0,0.027008
2018/05/14 04:25:00.001,n,143,1.08,0.72,1.44,12.2,82.1,1019.82,0,0,0,0,0.02964
2018/05/14 04:26:00.000,n,185,1.08,1.08,1.44,12.2,82.1,1019.72,0,0,0,0,0.026169
2018/05/14 04:27:00.000,n,201,2.88,2.52,3.24,12.2,82.2,1019.72,0,0,0,0,0.025291
2018/05/14 04:28:00.008,n,187,2.52,1.44,2.88,12.2,82.2,1019.82,0,0,0,0,0.024414
2018/05/14 04:29:00.006,n,146,2.88,2.52,3.24,12.2,82.2,1019.82,0,0,0,0,0.027008
2018/05/14 04:30:00.002,n,171,5.4,4.32,6.12,12.2,82.2,1019.82,0,0,0,0,0.021782
2018/05/14 04:31:00.000,n,146,5.76,3.6,6.84,12.2,82.1,1019.82,0,0,0,0,0.024414
2018/05/14 04:32:00.000,n,147,5.76,5.04,6.84,12.2,82.1,1019.82,0,0,0,0,0.023537
2018/05/14 04:33:00.000,n,156,2.88,2.16,3.24,12.1,82.1,1019.82,0,0,0,0,0.027008
2018/05/14 04:34:00.006,n,188,4.32,3.96,4.32,12.1,82.1,1019.82,0,0,0,0,0.022659
2018/05/14 04:35:00.004,n,156,6.84,6.48,7.2,12.1,82.2,1019.82,0,0,0,0,0.022659
2018/05/14 04:36:00.001,n,174,2.52,1.8,3.6,12.1,82.2,1019.92,0,0,0,0,0.025291
2018/05/14 04:37:00.000,n,203,2.52,2.16,2.88,12.1,82.2,1019.92,0,0,0,0,0.030441
2018/05/14 04:38:00.011,n,213,7.56,6.48,8.64,12.1,82.1,1019.92,0,0,0,0,0.0383
2018/05/14 04:39:00.008,n,174,4.68,3.96,5.4,12.1,82,1019.92,0,0,0,0,0.029602
2018/05/14 04:40:00.000,n,158,3.96,2.88,5.04,12.1,82,1019.92,0,0,0,0,0.040932
2018/05/14 04:41:00.002,n,145,5.04,4.32,5.76,12.1,81.9,1019.92,0,0,0,0,0.03479
2018/05/14 04:42:00.000,n,152,5.76,3.96,7.56,12.1,81.9,1019.92,0,0,0,0,0.03479
2018/05/14 04:43:00.000,n,158,5.4,4.32,6.12,12.1,81.9,1019.92,0,0,0,0,0.035706
2018/05/14 04:44:00.000,n,175,6.12,6.12,6.48,12.1,81.9,1019.92,0,0,0,0,0.03479
2018/05/14 04:45:00.008,n,139,4.68,3.96,5.04,12.2,81.8,1019.92,0,0,0,0,0.040932
2018/05/14 04:46:00.005,n,163,6.48,4.68,7.2,12.2,81.9,1019.92,0,0,0,0,0.0383
2018/05/14 04:47:00.003,n,183,2.52,0.72,3.24,12.2,81.8,1019.92,0,0,0,0,0.033073
2018/05/14 04:48:00.000,n,165,6.84,5.76,9,12.2,81.9,1019.92,0,0,0,0,0.033951
2018/05/14 04:49:00.000,n,181,7.56,6.84,8.28,12.2,81.8,1020.02,0,0,0,0,0.032196
2018/05/14 04:50:00.000,n,155,1.8,0.36,3.96,12.2,81.7,1020.02,0,0,0,0,0.033073
2018/05/14 04:51:00.000,n,179,3.6,2.88,4.32,12.2,81.7,1020.02,0,0,0,0,0.031357
2018/05/14 04:52:00.005,n,147,2.88,1.8,3.96,12.2,81.6,1020.02,0,0,0,0,0.033951
2018/05/14 04:53:00.003,n,174,2.88,2.16,3.96,12.2,81.6,1020.02,0,0,0,0,0.032196
2018/05/14 04:54:00.000,n,152,3.96,2.88,4.32,12.2,81.6,1020.02,0,0,0,0,0.032196
2018/05/14 04:55:00.000,n,153,2.52,1.44,3.24,12.2,81.6,1020.02,0,0,0,0,0.030441
2018/05/14 04:56:00.010,n,156,4.32,2.88,5.4,12.1,81.6,1020.02,0,0,0,0,0.037422